CW2352 Weather Reports


time (UTC)temp
C
wind
direction
speed
KPH
gust
KPH
rain 1hr
cm
rain 24hr
cm
rain mn
cm
humidity
%
barometer
mb
20260504201703 21 291 6.4 14.5 0.00 0.15 0.00 40 1008.3
20260504201203 21 330 4.8 19.3 0.00 0.15 0.00 40 1008.3
20260504200703 22 249 8.0 24.1 0.00 0.15 0.00 39 1008.1
20260504195203 20 319 8.0 24.1 0.00 0.15 0.00 42 1008.4
20260504194703 21 301 6.4 24.1 0.00 0.15 0.00 41 1008.8
20260504193703 22 250 8.0 12.9 0.00 0.15 0.00 40 1008.6
20260504192703 21 295 6.4 12.9 0.00 0.15 0.00 41 1008.9
20260504192203 21 76 4.8 12.9 0.00 0.15 0.00 42 1008.8
20260504191703 21 307 8.0 16.1 0.00 0.15 0.00 44 1009.0
20260504191203 21 309 6.4 20.9 0.00 0.15 0.00 42 1008.9
20260504185703 20 229 6.4 19.3 0.00 0.15 0.00 43 1009.3
20260504185203 21 272 12.9 22.5 0.00 0.15 0.00 41 1009.3
20260504184703 21 305 6.4 12.9 0.00 0.15 0.00 42 1009.1
20260504184203 21 317 8.0 16.1 0.00 0.15 0.00 43 1009.5
20260504183703 20 289 4.8 16.1 0.00 0.15 0.00 44 1009.5
20260504183203 20 333 8.0 16.1 0.00 0.15 0.00 45 1009.5
20260504182703 20 320 8.0 20.9 0.00 0.15 0.00 44 1009.8
20260504182203 20 290 9.7 19.3 0.00 0.15 0.00 44 1009.5
20260504181703 20 274 3.2 16.1 0.00 0.15 0.00 43 1009.5
20260504181204 20 260 9.7 19.3 0.00 0.15 0.00 42 1009.5
20260504180703 20 334 12.9 27.4 0.00 0.15 0.00 43 1009.5
20260504180203 20 337 12.9 24.1 0.00 0.15 0.00 44 1009.5
20260504175704 20 316 8.0 19.3 0.00 0.15 0.00 42 1009.5
20260504175203 20 319 14.5 25.7 0.00 0.15 0.00 43 1009.5
20260504174203 20 298 8.0 20.9 0.00 0.15 0.00 44 1009.6
20260504173704 20 283 11.3 24.1 0.00 0.15 0.00 43 1009.8
20260504172704 20 317 6.4 20.9 0.00 0.15 0.00 44 1009.8
20260504171704 20 311 6.4 11.3 0.00 0.15 0.00 44 1010.1
20260504171203 19 258 9.7 25.7 0.00 0.15 0.00 44 1010.1
20260504170703 19 274 9.7 19.3 0.00 0.15 0.00 43 1010.1
20260504160203 18 273 8.0 19.3 0.00 0.15 0.00 46 1010.8
20260504150703 16 265 8.0 20.9 0.00 0.15 0.00 49 1011.3
20260504150203 17 272 11.3 24.1 0.00 0.15 0.00 49 1011.5
20260504141202 15 223 4.8 11.3 0.00 0.15 0.00 54 1012.2
20260504140703 14 215 4.8 8.0 0.00 0.15 0.00 53 1012.2
20260504140203 13 201 3.2 8.0 0.00 0.15 0.00 56 1012.2
20260504130703 11 213 3.2 9.7 0.00 0.15 0.00 57 1012.5
20260504130202 11 228 3.2 19.3 0.00 0.15 0.00 58 1012.5
20260504120203 10 223 6.4 16.1 0.00 0.15 0.00 58 1012.8
20260504110703 10 202 4.8 16.1 0.00 0.15 0.00 61 1012.8
20260504110203 10 213 9.7 14.5 0.00 0.15 0.00 60 1012.8
20260504100203 8 223 6.4 19.3 0.00 0.15 0.15 69 1012.8
20260504081703 5 211 3.2 4.8 0.00 0.13 0.13 99 1013.5
20260504081203 5 195 1.6 3.2 0.00 0.13 0.13 99 1013.7
20260504080703 5 190 1.6 4.8 0.00 0.13 0.13 99 1013.7
20260504080204 6 206 3.2 4.8 0.00 0.13 0.13 99 1013.9
20260504070203 7 204 3.2 4.8 0.00 0.13 0.13 99 1013.9
20260504060204 7 190 3.2 4.8 0.00 0.13 0.13 99 1013.9
20260504050703 7 236 1.6 3.2 0.00 0.13 0.13 99 1014.4
20260504050202 7 83 1.6 3.2 0.00 0.13 0.13 99 1014.5
20260504045703 7 224 3.2 3.2 0.00 0.13 0.13 99 1014.5
20260504045203 7 73 3.2 4.8 0.00 0.13 0.13 99 1014.5
20260504044703 7 14 1.6 3.2 0.00 0.13 0.13 99 1014.9
20260504044202 7 222 1.6 3.2 0.00 0.13 0.13 99 1014.5
20260504043203 7 206 1.6 3.2 0.00 0.13 0.13 99 1014.5
20260504042203 7 225 0.0 3.2 0.00 0.13 0.13 99 1014.5
20260504041703 7 184 1.6 4.8 0.00 0.13 0.13 99 1014.5
20260504041203 7 187 4.8 8.0 0.00 0.13 0.13 99 1014.5
20260504040702 7 197 1.6 4.8 0.00 0.13 0.13 99 1014.7
20260504040202 7 189 3.2 9.7 0.03 0.13 0.13 99 1014.9
20260504035703 7 204 4.8 8.0 0.03 0.13 0.13 99 1014.5
20260504035203 7 316 3.2 3.2 0.03 0.13 0.13 98 1015.1
20260504034703 7 186 3.2 4.8 0.03 0.13 0.13 98 1014.9
20260504034203 7 199 1.6 3.2 0.03 0.13 0.13 97 1014.9
20260504033702 7 103 0.0 1.6 0.03 0.13 0.13 97 1014.9
20260504033203 7 185 1.6 3.2 0.03 0.13 0.13 97 1014.7
20260504032703 7 290 1.6 4.8 0.05 0.13 0.13 97 1014.7
20260504031703 7 175 4.8 4.8 0.08 0.13 0.13 96 1014.4
20260504031203 7 167 1.6 8.0 0.08 0.13 0.13 96 1014.7
20260504030703 7 177 3.2 4.8 0.08 0.13 0.13 95 1015.2
20260504030203 7 287 1.6 3.2 0.08 0.10 0.10 94 1015.6
20260504025703 7 289 1.6 3.2 0.08 0.10 0.10 93 1015.6
20260504025203 8 300 3.2 4.8 0.08 0.10 0.10 92 1015.6
20260504024203 8 289 3.2 12.9 0.08 0.10 0.10 89 1015.2
20260504023703 8 327 4.8 14.5 0.10 0.10 0.10 88 1015.4
20260504023203 8 335 8.0 25.7 0.10 0.10 0.10 86 1015.6
20260504022203 8 303 11.3 24.1 0.08 0.08 0.08 83 1015.9
20260504021203 8 348 4.8 14.5 0.05 0.05 0.05 81 1015.6
20260504020703 8 297 3.2 4.8 0.05 0.05 0.05 81 1015.6
20260504020203 8 211 3.2 4.8 0.03 0.03 0.03 85 1015.6
20260504015703 8 292 1.6 4.8 0.03 0.03 0.03 85 1015.4
20260504015203 8 276 3.2 8.0 0.03 0.03 0.03 81 1015.2
20260504014703 8 327 6.4 16.1 0.03 0.03 0.03 74 1015.2
20260504014203 8 316 3.2 9.7 0.03 0.03 0.03 79 1015.2
20260504013703 9 287 8.0 14.5 0.00 0.00 0.00 74 1015.2
20260504013203 9 254 1.6 3.2 0.00 0.00 0.00 75 1015.2
20260504012703 9 281 1.6 4.8 0.00 0.00 0.00 68 1015.2
20260504012203 9 284 3.2 4.8 0.00 0.00 0.00 66 1015.2
20260504011703 9 298 1.6 4.8 0.00 0.00 0.00 65 1014.9
20260504005703 10 116 1.6 3.2 0.00 0.00 0.00 65 1014.7
20260504005203 10 276 1.6 3.2 0.00 0.00 0.00 62 1014.5
20260504004703 10 186 3.2 3.2 0.00 0.00 0.00 62 1014.5
20260504004203 10 197 0.0 3.2 0.00 0.00 0.00 58 1014.5
20260504003703 10 224 1.6 3.2 0.00 0.00 0.00 58 1014.5
20260504002703 10 33 0.0 4.8 0.00 0.00 0.00 58 1014.5
20260504002203 10 273 1.6 8.0 0.00 0.00 0.00 58 1014.5
20260504001703 10 318 6.4 14.5 0.00 0.00 0.00 58 1014.5
20260504001203 10 338 4.8 20.9 0.00 0.00 0.00 59 1014.7
20260504000703 10 9 16.1 27.4 0.00 0.00 0.00 58 1014.7
20260503235703 11 264 4.8 16.1 0.00 0.00 0.00 54 1014.7
20260503235203 11 311 3.2 8.0 0.00 0.00 0.00 55 1014.5
20260503234704 11 343 0.0 4.8 0.00 0.00 0.00 53 1014.5
20260503234203 11 295 3.2 4.8 0.00 0.00 0.00 51 1014.2
20260503233203 11 334 4.8 9.7 0.00 0.00 0.00 50 1014.2
20260503232703 11 337 6.4 9.7 0.00 0.00 0.00 50 1013.9
20260503231704 11 4 8.0 20.9 0.00 0.00 0.00 49 1014.2
20260503231204 11 349 4.8 12.9 0.00 0.00 0.00 49 1014.1
20260503230704 11 343 6.4 14.5 0.00 0.00 0.00 49 1014.0
20260503230203 11 343 9.7 19.3 0.00 0.00 0.00 49 1013.9
20260503225704 11 336 9.7 19.3 0.00 0.00 0.00 47 1014.2
20260503225203 11 8 8.0 19.3 0.00 0.00 0.00 46 1014.2
20260503224703 11 322 8.0 16.1 0.00 0.00 0.00 45 1013.9
20260503224203 11 330 8.0 19.3 0.00 0.00 0.00 45 1013.9
20260503223703 11 294 9.7 19.3 0.00 0.00 0.00 44 1014.1
20260503223204 11 337 3.2 16.1 0.00 0.00 0.00 45 1014.1
20260503222703 11 320 8.0 19.3 0.00 0.00 0.00 44 1014.1
20260503222203 11 316 8.0 16.1 0.00 0.00 0.00 45 1014.2
20260503221703 11 322 4.8 16.1 0.00 0.00 0.00 44 1014.2
20260503221204 11 309 4.8 16.1 0.00 0.00 0.00 44 1014.0
20260503220704 11 301 4.8 16.1 0.00 0.00 0.00 43 1013.9
20260503215703 12 301 9.7 20.9 0.00 0.00 0.00 43 1013.9
20260503215204 12 328 9.7 20.9 0.00 0.00 0.00 41 1013.9
20260503214704 12 283 4.8 25.7 0.00 0.00 0.00 42 1013.9
20260503214204 12 3 6.4 24.1 0.00 0.00 0.00 42 1013.7
20260503213203 12 312 11.3 22.5 0.00 0.00 0.00 39 1013.9
20260503212704 12 322 9.7 19.3 0.00 0.00 0.00 40 1013.9
20260503210704 12 318 6.4 24.1 0.00 0.00 0.00 41 1013.9
20260503210203 12 329 11.3 25.7 0.00 0.00 0.00 40 1014.0
20260503205703 12 345 11.3 27.4 0.00 0.00 0.00 39 1013.9
20260503204203 12 306 9.7 24.1 0.00 0.00 0.00 38 1013.9
20260503203703 12 303 14.5 24.1 0.00 0.00 0.00 38 1013.9
20260503202701 12 335 11.3 25.7 0.00 0.00 0.00 37 1014.2
20260503202201 12 323 9.7 29.0 0.00 0.00 0.00 37 1013.9